Weather History for Abilene Dyess, TX

Change the Weather History Date:

Wednesday, January 22, 2014

  Actual Average Record
Temperature  
Mean Temperature 46 °F -  
Max Temperature 61 °F 57 °F 82 °F (2009)
Min Temperature 31 °F 35 °F 23 °F (2011)
Degree Days  
Heating Degree Days 19    
Moisture  
Dew Point 18 °F    
Average Humidity 34    
Maximum Humidity 54    
Minimum Humidity 19    
Precipitation  
Precipitation 0.00 in - - ()
Sea Level Pressure  
Sea Level Pressure 30.04 in    
Wind  
Wind Speed 5 mph (NE)    
Max Wind Speed 12 mph    
Max Gust Speed -    
Visibility 10 miles    
Events      
Averages and records for this station are not official NWS values.
T = Trace of Precipitation, MM = Missing Value Source: NWS Daily Summary

Daily Weather History Graph

Daily Weather History Graph

Search for Another Location

Airport:

Trip Planner

Search our weather history database for the weather conditions in past years. The results will help you decide how hot, cold, wet, or windy it might be!

Date:

Astronomy

Jan. 22, 2014 Rise Set
Actual Time 7:39 AM CST 6:03 PM CST
Civil Twilight 7:12 AM CST 6:29 PM CST
Nautical Twilight 6:42 AM CST 6:59 PM CST
Astronomical Twilight 6:13 AM CST 7:28 PM CST
Moon No Moon Rise 11:04 AM CST (1/22)
Length of Visible Light 11h 16m
Length of Day
10h 24m
Waning Gibbous, 65% of the Moon is Illuminated
Jan 22
Waning Gibbous
Jan 23
Last Quarter
Jan 30
New
Feb 6
First Quarter
Feb 14
Full

Hourly Weather History & Observations

Time (CST) Temp. Windchill Dew Point Humidity Pressure Visibility Wind Dir Wind Speed Gust Speed Precip Events Conditions
12:58 AM 36.5 °F - 15.3 °F 42% 30.12 in 10.0 mi Calm Calm - N/A   Clear
1:58 AM 44.8 °F - 14.0 °F 29% 30.07 in 10.0 mi Calm Calm - N/A   Clear
2:58 AM 39.4 °F 33.2 °F 15.3 °F 38% 30.06 in 10.0 mi South 9.2 mph - N/A   Clear
3:58 AM 42.3 °F 38.6 °F 13.3 °F 31% 30.03 in 10.0 mi South 5.8 mph - N/A   Clear
4:58 AM 39.2 °F 33.6 °F 14.9 °F 37% 30.03 in 10.0 mi South 8.1 mph - N/A   Clear
5:58 AM 36.3 °F 29.5 °F 14.9 °F 42% 30.04 in 10.0 mi South 9.2 mph - N/A   Clear
6:58 AM 38.1 °F 33.7 °F 14.4 °F 38% 30.08 in 10.0 mi SSE 5.8 mph - N/A   Clear
7:58 AM 31.3 °F 23.9 °F 16.3 °F 54% 30.12 in 10.0 mi North 8.1 mph - N/A   Clear
8:58 AM 40.5 °F - 18.0 °F 40% 30.11 in 10.0 mi Calm Calm - N/A   Clear
9:58 AM 47.8 °F - 17.6 °F 30% 30.09 in 10.0 mi West 2.3 mph - N/A   Clear
10:58 AM 54.1 °F - 17.4 °F 24% 30.06 in 10.0 mi NNW 1.2 mph - N/A   Clear
11:58 AM 57.6 °F - 18.1 °F 22% 30.04 in 10.0 mi NNE 5.8 mph - N/A   Clear
12:58 PM 59.5 °F - 17.6 °F 20% 29.99 in 10.0 mi NE 8.1 mph - N/A   Clear
1:58 PM 60.8 °F - 17.6 °F 19% 29.95 in 10.0 mi NNE 8.1 mph - N/A   Partly Cloudy
2:58 PM 61.3 °F - 18.0 °F 19% 29.94 in 10.0 mi East 5.8 mph - N/A   Clear
3:58 PM 61.5 °F - 19.0 °F 19% 29.92 in 10.0 mi ENE 5.8 mph - N/A   Clear
4:58 PM 58.6 °F - 19.0 °F 21% 29.94 in 10.0 mi NNE 9.2 mph - N/A   Clear
5:58 PM 53.8 °F - 21.2 °F 28% 29.96 in 10.0 mi NNE 10.4 mph - N/A   Scattered Clouds
6:58 PM 50.9 °F - 21.4 °F 31% 30.00 in 10.0 mi NNE 8.1 mph - N/A   Mostly Cloudy
7:58 PM 46.8 °F - 23.0 °F 39% 30.04 in 10.0 mi NNE 11.5 mph - N/A   Scattered Clouds
8:58 PM 43.9 °F 38.8 °F 22.3 °F 42% 30.05 in 10.0 mi North 9.2 mph - N/A   Scattered Clouds
9:58 PM 42.4 °F 39.6 °F 23.2 °F 47% 30.04 in 10.0 mi NNE 4.6 mph - N/A   Partly Cloudy
10:58 PM 41.4 °F 36.2 °F 23.7 °F 50% 30.07 in 10.0 mi NE 8.1 mph - N/A   Scattered Clouds
11:58 PM 39.2 °F 32.5 °F 22.3 °F 51% 30.10 in 10.0 mi NE 10.4 mph - N/A   Scattered Clouds